Location: Newark
(53.3469°N, 7.1606°E)
Time: 15:22:45
(UTC+00:00)

N. Korean satellite - Visible Passes

Search period start: 12 November 2019 00:00
Search period end: 22 November 2019 00:00
Orbit: 456 x 506 km, 97.2° (Epoch: 12 November)

Date Brightness Start Highest point End Pass type
(mag) Time Alt. Az. Time Alt. Az. Time Alt. Az.
12 Nov 9.9 04:25:25 10° NE 04:27:42 15° E 04:29:58 10° SE visible
12 Nov 6.7 05:57:46 10° N 06:01:28 60° WNW 06:05:08 10° SSW visible
12 Nov 7.2 16:38:57 10° S 16:42:31 61° W 16:46:11 10° NNW visible
13 Nov 6.9 05:32:22 10° NNE 05:36:07 73° ESE 05:39:49 10° S visible
13 Nov 6.5 16:13:32 10° SSE 16:17:08 71° ENE 16:20:49 10° N visible
13 Nov 10.1 17:49:20 10° WSW 17:51:01 13° W 17:52:43 10° WNW visible
14 Nov 8.2 05:07:08 10° NNE 05:10:40 39° E 05:14:10 10° SSE visible
14 Nov 9.4 17:22:29 10° SW 17:25:23 22° W 17:28:19 10° NW visible
15 Nov 9.3 04:42:08 10° NE 04:45:07 22° E 04:48:05 10° SE visible
15 Nov 7.1 06:15:09 10° N 06:18:40 40° WNW 06:22:09 10° SW visible
15 Nov 8.2 16:56:24 10° SSW 16:59:50 39° W 17:03:20 10° NNW visible
16 Nov 10.1 04:17:43 10° ENE 04:19:30 13° E 04:21:15 10° ESE visible
16 Nov 6.6 05:49:37 10° N 05:53:22 73° WNW 05:57:04 10° SSW visible
16 Nov 6.9 16:30:45 10° S 16:34:22 75° WSW 16:38:06 10° NNW visible
17 Nov 7.3 05:24:16 10° NNE 05:27:58 60° E 05:31:38 10° S visible
17 Nov 9.9 17:40:33 10° SW 17:42:47 15° W 17:45:02 10° NW visible
18 Nov 8.6 04:59:05 10° NNE 05:02:29 32° E 05:05:50 10° SSE visible
18 Nov 9.0 17:14:02 10° SSW 17:17:10 26° W 17:20:21 10° NW visible
19 Nov 9.6 04:34:12 10° NE 04:36:54 19° E 04:39:34 10° SE visible
19 Nov 6.9 06:06:57 10° N 06:10:33 47° WNW 06:14:07 10° SW visible
19 Nov 7.8 16:48:05 10° S 16:51:38 48° W 16:55:16 10° NNW visible
20 Nov 10.3 04:10:20 10° ENE 04:11:13 11° E 04:12:07 10° E visible
20 Nov 6.6 05:41:28 10° NNE 05:45:13 88° WNW 05:48:54 10° SSW visible
20 Nov 6.6 16:22:32 10° SSE 16:26:12 90° ENE 16:29:57 10° NNW visible
20 Nov 10.3 17:59:29 10° W 18:00:12 10° W 18:00:55 10° WNW visible
21 Nov 7.7 05:16:09 10° NNE 05:19:47 49° E 05:23:21 10° S visible
21 Nov 9.7 17:31:53 10° SW 17:34:31 18° W 17:37:10 10° NW visible
